Вернуться в каталог

SL-16 DEB

АктивенLEO
NORAD 23409·DEBRIS·🇷🇺 Russia

Запущен Nov 24, 1994 с Baikonur Cosmodrome

Loading…

Ближайшие Пролёты (ближайшие 24 часа)

TLE

СвежийSource: Space-Track

Эпоха: Sep 14, 2026, 05:44 UTC

1 23409U 94077F   26257.23929710  .00000099  00000-0  97117-4 0  9997
2 23409  70.8807 191.8348 0089616 162.9700 197.4456 13.98981621622597

Отслеживайте SL-16 DEB в реальном времени с AllMySat

Download on the App Store